User: anonymous   Login
Location: Kawakawa
(35.3830°S, 174.0670°E)
Time: 20:07:45
(UTC+13:00)
Language:

Cosmos 1805 Rocket - Orbit

View from above orbital plane
View from above orbital plane
View from above satellite
View from above satellite

Ground track
Ground track

The orbit data is extracted from the following two-line orbital elements,

1 17192U 86097B   19293.80657250  .00000060  00000-0  43389-5 0  9995
2 17192  82.5079 173.4123 0017507 156.2508 234.2806 14.83587509775533
Epoch (UTC): 20 October 2019 19:21:27
Eccentricity: 0.0017507
inclination: 82.5079°
perigee height: 606 km
apogee height: 630 km
right ascension of ascending node: 173.4123°
argument of perigee: 156.2508°
revolutions per day: 14.83587509
mean anomaly at epoch: 234.2806°
orbit number at epoch: 77553

The dashed part of the orbit path shows where the satellite is in the earth's shadow,  

DLR